FW5816 Weather Reports


Display with metric or nautical units.
time (UTC)temp
F
wind
direction
speed
MPH
gust
MPH
rain 1hr
in
rain 24hr
in
rain mn
in
humidity
%
barometer
mb
20260903060519 79 0 0.0 0.0 0.00 0.00 0.00 82 1016.5
20260903060038 79 0 0.0 0.0 0.00 0.00 0.00 83 1016.5
20260903055520 79 0 0.0 0.0 0.00 0.00 0.00 83 1016.5
20260903055022 79 0 0.0 0.0 0.00 0.00 0.00 83 1016.5
20260903054537 79 0 0.0 0.0 0.00 0.00 0.00 83 1016.6
20260903054021 79 0 0.0 0.0 0.00 0.00 0.00 83 1016.5
20260903053518 79 0 0.0 0.0 0.00 0.00 0.00 84 1016.5
20260903053037 79 0 0.0 0.0 0.00 0.00 0.00 84 1016.5
20260903052519 79 0 0.0 0.0 0.00 0.00 0.00 84 1016.5
20260903052020 79 0 0.0 0.0 0.00 0.00 0.00 84 1016.5
20260903051557 79 0 0.0 0.0 0.00 0.00 0.00 84 1016.5
20260903051021 79 0 0.0 0.0 0.00 0.00 0.00 84 1016.5
20260903050519 79 0 0.0 0.0 0.00 0.00 0.00 84 1016.4
20260903050039 79 0 0.0 0.0 0.00 0.00 0.00 84 1016.4
20260903045518 79 0 0.0 0.0 0.00 0.00 0.00 84 1016.4
20260903045024 79 0 0.0 0.0 0.00 0.00 0.00 84 1016.4
20260903044542 79 0 0.0 0.0 0.00 0.00 0.00 84 1016.4
20260903044018 79 0 0.0 0.0 0.00 0.00 0.00 84 1016.4
20260903043519 79 0 0.0 1.0 0.00 0.00 0.00 84 1016.4
20260903043121 79 0 0.0 1.0 0.00 0.00 0.00 84 1016.4
20260903042519 79 141 0.0 1.0 0.00 0.00 0.00 84 1016.4
20260903042017 80 141 0.0 1.0 0.00 0.00 0.00 84 1016.4
20260903041538 80 0 0.0 1.0 0.00 0.00 0.00 84 1016.3
20260903041019 80 0 0.0 1.0 0.00 0.00 0.00 83 1016.4
20260903040519 80 0 0.0 1.0 0.00 0.00 0.00 82 1016.4
20260903040038 80 0 0.0 1.0 0.00 0.00 0.00 81 1016.4
20260903035518 81 0 0.0 1.0 0.00 0.00 0.00 81 1016.5
20260903035017 81 141 0.0 1.0 0.00 0.00 0.00 80 1016.4
20260903034540 81 141 0.0 1.0 0.00 0.00 0.00 80 1016.4
20260903034020 81 0 0.0 0.0 0.00 0.00 0.00 79 1016.4
20260903033518 82 0 0.0 0.0 0.00 0.00 0.00 79 1016.3
20260903033039 82 0 0.0 0.0 0.00 0.00 0.00 79 1016.3
20260903032517 82 0 0.0 0.0 0.00 0.00 0.00 78 1016.4
20260903032017 82 0 0.0 0.0 0.00 0.00 0.00 78 1016.4
20260903031536 82 0 0.0 0.0 0.00 0.00 0.00 77 1016.3
20260903031019 82 0 0.0 0.0 0.00 0.00 0.00 77 1016.2
20260903030518 82 0 0.0 1.0 0.00 0.00 0.00 77 1016.3
20260903030038 82 0 0.0 1.0 0.00 0.00 0.00 77 1016.3
20260903025518 82 0 0.0 1.0 0.00 0.00 0.00 77 1016.4
20260903025017 83 0 0.0 1.0 0.00 0.00 0.00 76 1016.4
20260903024538 83 0 0.0 1.0 0.00 0.00 0.00 76 1016.4
20260903024020 83 0 0.0 1.0 0.00 0.00 0.00 76 1016.3
20260903023519 83 141 0.0 1.0 0.00 0.00 0.00 75 1016.4
20260903023041 83 0 0.0 1.0 0.00 0.00 0.00 75 1016.3
20260903022516 83 141 0.0 1.0 0.00 0.00 0.00 75 1016.3
20260903022020 84 141 0.0 1.0 0.00 0.00 0.00 75 1016.4
20260903021539 84 141 0.0 1.0 0.00 0.00 0.00 74 1016.5
20260903021018 84 0 0.0 1.0 0.00 0.00 0.00 74 1016.5
20260903020518 84 141 0.0 1.0 0.00 0.00 0.00 73 1016.4
20260903020035 84 141 0.0 1.0 0.00 0.00 0.00 73 1016.4
20260903015522 85 0 0.0 1.0 0.00 0.00 0.00 72 1016.4
20260903015018 85 141 0.0 1.0 0.00 0.00 0.00 72 1016.4
20260903014541 85 0 0.0 1.0 0.00 0.00 0.00 71 1016.4
20260903014017 85 0 0.0 1.0 0.00 0.00 0.00 70 1016.4
20260903013523 86 0 0.0 0.0 0.00 0.00 0.00 69 1016.4
20260903013045 86 0 0.0 0.0 0.00 0.00 0.00 68 1016.3
20260903012518 86 0 0.0 0.0 0.00 0.00 0.00 68 1016.3
20260903012019 86 0 0.0 0.0 0.00 0.00 0.00 68 1016.3
20260903011537 87 0 0.0 1.0 0.00 0.00 0.00 68 1016.2
20260903011019 87 0 0.0 1.0 0.00 0.00 0.00 67 1016.2
20260903010522 87 0 0.0 1.0 0.00 0.00 0.00 67 1016.2
20260903010040 87 240 0.0 1.0 0.00 0.00 0.00 67 1016.1
20260903005519 88 0 0.0 1.0 0.00 0.00 0.00 66 1016.2
20260903005019 88 0 0.0 1.0 0.00 0.00 0.00 65 1016.1
20260903004537 89 0 0.0 0.0 0.00 0.00 0.00 64 1016.1
20260903004017 89 0 0.0 0.0 0.00 0.00 0.00 63 1016.1
20260903003519 90 0 0.0 0.0 0.00 0.00 0.00 63 1016.1
20260903003037 90 0 0.0 0.0 0.00 0.00 0.00 61 1016.2
20260903002521 90 0 0.0 0.0 0.00 0.00 0.00 60 1016.1
20260903002020 91 0 0.0 1.0 0.00 0.00 0.00 60 1016.1
20260903001539 91 0 0.0 1.0 0.00 0.00 0.00 60 1016.2
20260903001018 92 0 0.0 1.0 0.00 0.00 0.00 58 1016.0
20260903000517 93 0 0.0 1.0 0.00 0.00 0.00 58 1016.1
20260903000038 94 0 0.0 1.0 0.00 0.00 0.00 57 1016.1
20260902235519 94 243 0.0 1.0 0.00 0.00 0.00 57 1016.1
20260902235022 95 0 0.0 1.0 0.00 0.00 0.00 55 1016.1
20260902234543 96 0 0.0 1.0 0.00 0.00 0.00 55 1016.1
20260902234017 96 0 0.0 2.0 0.00 0.00 0.00 55 1016.0
20260902233518 96 0 0.0 2.0 0.00 0.00 0.00 54 1016.0
20260902233037 97 235 0.0 2.0 0.00 0.00 0.00 52 1016.1
20260902232518 97 110 0.0 1.0 0.00 0.00 0.00 52 1016.0
20260902232018 97 0 0.0 1.0 0.00 0.00 0.00 52 1016.1
20260902231536 96 0 0.0 5.0 0.00 0.00 0.00 52 1016.1
20260902231021 96 250 1.0 5.0 0.00 0.00 0.00 53 1016.1
20260902230518 96 0 1.0 4.0 0.00 0.00 0.00 53 1016.2
20260902230036 96 277 1.0 4.0 0.00 0.00 0.00 53 1016.2
20260902225520 96 270 1.0 6.0 0.00 0.00 0.00 53 1016.2
20260902225019 97 275 2.0 6.0 0.00 0.00 0.00 52 1016.2
20260902224544 97 226 2.0 6.0 0.00 0.00 0.00 51 1016.1
20260902224019 97 281 0.0 6.0 0.00 0.00 0.00 52 1016.1
20260902223521 96 164 2.0 6.0 0.00 0.00 0.00 52 1016.0
20260902223036 96 249 3.0 6.0 0.00 0.00 0.00 52 1016.1
20260902222517 97 283 1.0 3.0 0.00 0.00 0.00 51 1016.2
20260902222023 97 257 0.0 6.0 0.00 0.00 0.00 51 1016.2
20260902221537 96 293 1.0 6.0 0.00 0.00 0.00 50 1016.3
20260902221020 96 254 2.0 7.0 0.00 0.00 0.00 51 1016.3
20260902220520 96 317 3.0 7.0 0.00 0.00 0.00 50 1016.2
20260902220039 97 251 1.0 4.0 0.00 0.00 0.00 51 1016.3
20260902215525 97 282 1.0 4.0 0.00 0.00 0.00 50 1016.3
20260902215019 97 357 2.0 4.0 0.00 0.00 0.00 50 1016.3
20260902214536 96 195 2.0 6.0 0.00 0.00 0.00 49 1016.3
20260902214017 96 253 1.0 7.0 0.00 0.00 0.00 51 1016.3
20260902213515 95 167 3.0 7.0 0.00 0.00 0.00 51 1016.4
20260902213036 96 270 2.0 5.0 0.00 0.00 0.00 51 1016.4
20260902212518 96 0 0.0 3.0 0.00 0.00 0.00 51 1016.4
20260902212020 94 276 0.0 3.0 0.00 0.00 0.00 54 1016.5
20260902211539 95 276 1.0 4.0 0.00 0.00 0.00 54 1016.6
20260902211020 95 269 1.0 5.0 0.00 0.00 0.00 54 1016.5
20260902210520 96 281 2.0 5.0 0.00 0.00 0.00 52 1016.6
20260902210035 95 277 1.0 4.0 0.00 0.00 0.00 51 1016.6
20260902205519 96 269 1.0 7.0 0.00 0.00 0.00 50 1016.7
20260902205017 96 246 2.0 7.0 0.00 0.00 0.00 50 1016.6
20260902204540 96 99 1.0 8.0 0.00 0.00 0.00 52 1016.6
20260902204017 95 272 3.0 10.0 0.00 0.00 0.00 52 1016.6
20260902203517 95 288 2.0 10.0 0.00 0.00 0.00 52 1016.8
20260902203038 96 293 4.0 10.0 0.00 0.00 0.00 51 1016.7
20260902202518 95 230 2.0 4.0 0.00 0.00 0.00 52 1016.7
20260902202020 95 294 3.0 4.0 0.00 0.00 0.00 52 1016.8
20260902201544 96 5 1.0 3.0 0.00 0.00 0.00 51 1016.8
20260902201020 97 143 0.0 4.0 0.00 0.00 0.00 49 1016.9
20260902200518 97 129 1.0 4.0 0.00 0.00 0.00 51 1016.9
20260902200051 96 84 1.0 4.0 0.00 0.00 0.00 54 1017.0
20260902195520 95 262 1.0 4.0 0.00 0.00 0.00 53 1017.1
20260902195019 95 248 2.0 6.0 0.00 0.00 0.00 53 1017.2
20260902194538 96 288 2.0 7.0 0.00 0.00 0.00 52 1017.2
20260902194018 96 288 2.0 7.0 0.00 0.00 0.00 51 1017.2
20260902193518 96 297 4.0 7.0 0.00 0.00 0.00 50 1017.3
20260902193037 97 4 1.0 4.0 0.00 0.00 0.00 51 1017.2
20260902192518 96 66 0.0 7.0 0.00 0.00 0.00 52 1017.4
20260902192019 94 0 2.0 7.0 0.00 0.00 0.00 55 1017.5
20260902191538 95 273 1.0 6.0 0.00 0.00 0.00 54 1017.6
20260902191019 95 140 2.0 6.0 0.00 0.00 0.00 53 1017.6
20260902190519 95 153 3.0 6.0 0.00 0.00 0.00 55 1017.7
20260902190052 95 207 1.0 6.0 0.00 0.00 0.00 55 1017.6
20260902185517 94 0 1.0 6.0 0.00 0.00 0.00 54 1017.7
20260902185019 95 292 3.0 8.0 0.00 0.00 0.00 53 1017.8
20260902184535 95 210 2.0 8.0 0.00 0.00 0.00 54 1017.9
20260902184018 95 227 1.0 3.0 0.00 0.00 0.00 54 1017.8
20260902183516 94 37 1.0 5.0 0.00 0.00 0.00 56 1017.9
20260902183037 94 221 1.0 5.0 0.00 0.00 0.00 57 1017.9
20260902182517 93 248 1.0 5.0 0.00 0.00 0.00 57 1017.9
20260902182019 94 3 1.0 5.0 0.00 0.00 0.00 56 1018.0
20260902181536 94 323 1.0 6.0 0.00 0.00 0.00 57 1017.9
20260902181019 95 16 2.0 6.0 0.00 0.00 0.00 57 1017.9
20260902180520 94 255 3.0 6.0 0.00 0.00 0.00 56 1018.0
20260902180037 94 276 2.0 5.0 0.00 0.00 0.00 57 1018.1
20260902175521 94 226 2.0 6.0 0.00 0.00 0.00 56 1018.0
20260902175020 95 324 1.0 6.0 0.00 0.00 0.00 55 1018.1
20260902174535 96 286 3.0 6.0 0.00 0.00 0.00 54 1018.2
20260902174018 95 277 1.0 5.0 0.00 0.00 0.00 55 1018.2
20260902173520 95 298 0.0 8.0 0.00 0.00 0.00 55 1018.3
20260902173036 94 283 3.0 8.0 0.00 0.00 0.00 55 1018.3
20260902172519 94 274 1.0 6.0 0.00 0.00 0.00 56 1018.5
20260902172020 94 15 1.0 8.0 0.00 0.00 0.00 56 1018.6
20260902171537 94 147 3.0 8.0 0.00 0.00 0.00 56 1018.7
20260902171023 94 298 3.0 7.0 0.00 0.00 0.00 55 1018.7
20260902170518 93 238 3.0 7.0 0.00 0.00 0.00 56 1018.8
20260902170038 93 276 2.0 5.0 0.00 0.00 0.00 57 1018.8
20260902165520 93 236 1.0 7.0 0.00 0.00 0.00 56 1018.8
20260902165020 93 267 3.0 7.0 0.00 0.00 0.00 58 1019.0
20260902164538 93 198 4.0 8.0 0.00 0.00 0.00 57 1018.9
20260902164019 93 83 2.0 8.0 0.00 0.00 0.00 57 1018.9
20260902163516 93 272 1.0 6.0 0.00 0.00 0.00 57 1019.1
20260902163035 92 170 3.0 6.0 0.00 0.00 0.00 58 1019.3
20260902162518 92 288 2.0 5.0 0.00 0.00 0.00 59 1019.2
20260902162020 92 321 2.0 9.0 0.00 0.00 0.00 60 1019.1
20260902161543 91 288 4.0 9.0 0.00 0.00 0.00 60 1019.2
20260902161018 91 278 3.0 8.0 0.00 0.00 0.00 60 1019.3
20260902160522 91 256 4.0 9.0 0.00 0.00 0.00 60 1019.4
20260902160037 91 193 5.0 9.0 0.00 0.00 0.00 61 1019.2
20260902155517 91 201 3.0 9.0 0.00 0.00 0.00 60 1019.3
20260902155020 91 287 2.0 8.0 0.00 0.00 0.00 62 1019.4
20260902154536 90 274 2.0 8.0 0.00 0.00 0.00 64 1019.3
20260902154017 90 131 4.0 7.0 0.00 0.00 0.00 63 1019.3
20260902153517 90 271 2.0 8.0 0.00 0.00 0.00 64 1019.2
20260902153038 90 194 3.0 8.0 0.00 0.00 0.00 64 1019.2
20260902152517 90 262 2.0 6.0 0.00 0.00 0.00 64 1019.2
20260902152020 90 254 3.0 6.0 0.00 0.00 0.00 64 1019.2
20260902151536 90 240 1.0 4.0 0.00 0.00 0.00 66 1019.3
20260902151018 89 141 2.0 7.0 0.00 0.00 0.00 66 1019.3
20260902150521 89 290 3.0 7.0 0.00 0.00 0.00 66 1019.2
20260902150037 90 232 1.0 4.0 0.00 0.00 0.00 67 1019.2
20260902145518 89 348 1.0 5.0 0.00 0.00 0.00 68 1019.2
20260902145023 88 290 2.0 6.0 0.00 0.00 0.00 68 1019.3
20260902144535 88 223 2.0 6.0 0.00 0.00 0.00 68 1019.3
20260902144019 88 246 2.0 4.0 0.00 0.00 0.00 69 1019.4
20260902143516 87 264 1.0 4.0 0.00 0.00 0.00 70 1019.4
20260902143041 87 257 2.0 4.0 0.00 0.00 0.00 70 1019.4
20260902142520 86 281 1.0 5.0 0.00 0.00 0.00 71 1019.3
20260902142020 86 285 2.0 5.0 0.00 0.00 0.00 71 1019.4
20260902141538 86 271 2.0 5.0 0.00 0.00 0.00 72 1019.4
20260902141022 86 248 1.0 5.0 0.00 0.00 0.00 72 1019.3
20260902140518 85 266 1.0 3.0 0.00 0.00 0.00 73 1019.3
20260902140041 85 266 1.0 4.0 0.00 0.00 0.00 73 1019.4
20260902135520 85 258 1.0 4.0 0.00 0.00 0.00 74 1019.5
20260902135019 85 281 2.0 4.0 0.00 0.00 0.00 74 1019.4
20260902134537 85 0 1.0 2.0 0.00 0.00 0.00 74 1019.3
20260902134018 85 273 0.0 2.0 0.00 0.00 0.00 74 1019.3
20260902133518 85 0 0.0 2.0 0.00 0.00 0.00 75 1019.4
20260902133035 84 0 0.0 3.0 0.00 0.00 0.00 77 1019.3
20260902132524 83 278 1.0 3.0 0.00 0.00 0.00 76 1019.3
20260902132018 83 212 0.0 2.0 0.00 0.00 0.00 77 1019.3
20260902131539 83 212 0.0 2.0 0.00 0.00 0.00 78 1019.4
20260902131020 83 309 0.0 1.0 0.00 0.00 0.00 78 1019.4
20260902130520 83 0 0.0 0.0 0.00 0.00 0.00 78 1019.4
20260902130041 83 0 0.0 0.0 0.00 0.00 0.00 78 1019.4
20260902125517 83 0 0.0 0.0 0.00 0.00 0.00 78 1019.3
20260902125019 83 0 0.0 0.0 0.00 0.00 0.00 78 1019.3
20260902124534 83 0 0.0 0.0 0.00 0.00 0.00 78 1019.3
20260902124017 83 0 0.0 0.0 0.00 0.00 0.00 78 1019.2
20260902123519 82 0 0.0 0.0 0.00 0.00 0.00 80 1019.2
20260902123040 80 0 0.0 0.0 0.00 0.00 0.00 82 1019.1
20260902122521 79 0 0.0 0.0 0.00 0.00 0.00 83 1019.1
20260902122020 79 0 0.0 0.0 0.00 0.00 0.00 84 1019.0
20260902121539 78 0 0.0 0.0 0.00 0.00 0.00 86 1018.9
20260902121019 77 0 0.0 0.0 0.00 0.00 0.00 87 1018.9
20260902120518 76 0 0.0 0.0 0.00 0.00 0.00 87 1018.8
20260902120040 76 0 0.0 0.0 0.00 0.00 0.00 88 1018.9
20260902115519 75 0 0.0 0.0 0.00 0.00 0.00 89 1019.0
20260902115019 75 0 0.0 0.0 0.00 0.00 0.00 90 1018.9
20260902114538 74 0 0.0 0.0 0.00 0.00 0.00 91 1018.8
20260902114017 74 0 0.0 0.0 0.00 0.00 0.00 91 1018.7
20260902113518 73 0 0.0 0.0 0.00 0.00 0.00 92 1018.6
20260902113037 73 0 0.0 0.0 0.00 0.00 0.00 92 1018.6
20260902112520 73 0 0.0 0.0 0.00 0.00 0.00 92 1018.6
20260902112020 73 0 0.0 0.0 0.00 0.00 0.00 92 1018.5
20260902111545 73 0 0.0 0.0 0.00 0.00 0.00 92 1018.5
20260902111023 73 0 0.0 0.0 0.00 0.00 0.00 92 1018.6
20260902110518 73 0 0.0 0.0 0.00 0.00 0.00 92 1018.4
20260902110037 73 0 0.0 0.0 0.00 0.00 0.00 91 1018.4
20260902105521 73 0 0.0 0.0 0.00 0.00 0.00 92 1018.4
20260902105019 73 0 0.0 0.0 0.00 0.00 0.00 92 1018.3
20260902104542 73 0 0.0 0.0 0.00 0.00 0.00 92 1018.4
20260902104020 73 0 0.0 0.0 0.00 0.00 0.00 91 1018.3
20260902103518 73 0 0.0 0.0 0.00 0.00 0.00 91 1018.3
20260902103039 73 0 0.0 0.0 0.00 0.00 0.00 91 1018.2
20260902102519 73 0 0.0 0.0 0.00 0.00 0.00 91 1018.1
20260902102020 73 0 0.0 0.0 0.00 0.00 0.00 91 1018.1
20260902101540 73 0 0.0 0.0 0.00 0.00 0.00 91 1018.1
20260902101017 74 0 0.0 0.0 0.00 0.00 0.00 91 1018.1
20260902100518 74 0 0.0 0.0 0.00 0.00 0.00 90 1018.1
20260902100039 74 0 0.0 0.0 0.00 0.00 0.00 90 1018.1
20260902095519 74 0 0.0 0.0 0.00 0.00 0.00 90 1018.1
20260902095019 74 0 0.0 0.0 0.00 0.00 0.00 90 1018.0
20260902094545 74 0 0.0 0.0 0.00 0.00 0.00 90 1018.0
20260902094018 74 0 0.0 0.0 0.00 0.00 0.00 90 1017.9
20260902093517 74 0 0.0 0.0 0.00 0.00 0.00 90 1017.9
20260902093037 74 0 0.0 0.0 0.00 0.00 0.00 90 1017.8
20260902092519 74 0 0.0 0.0 0.00 0.00 0.00 90 1017.7
20260902092023 74 0 0.0 0.0 0.00 0.00 0.00 90 1017.7
20260902091545 74 0 0.0 0.0 0.00 0.00 0.00 89 1017.7
20260902091018 74 0 0.0 0.0 0.00 0.00 0.00 90 1017.5
20260902090516 74 0 0.0 0.0 0.00 0.00 0.00 90 1017.5
20260902090035 74 0 0.0 0.0 0.00 0.00 0.00 90 1017.5
20260902085519 74 0 0.0 0.0 0.00 0.00 0.00 90 1017.5
20260902085018 74 0 0.0 0.0 0.00 0.00 0.00 89 1017.4
20260902084536 74 0 0.0 0.0 0.00 0.00 0.00 90 1017.5
20260902084020 74 0 0.0 0.0 0.00 0.00 0.00 89 1017.5
20260902083520 74 0 0.0 0.0 0.00 0.00 0.00 89 1017.7
20260902083036 75 0 0.0 0.0 0.00 0.00 0.00 89 1017.5
20260902082517 75 0 0.0 0.0 0.00 0.00 0.00 89 1017.6
20260902082019 75 0 0.0 0.0 0.00 0.00 0.00 89 1017.5
20260902081547 75 0 0.0 0.0 0.00 0.00 0.00 89 1017.3
20260902081021 75 0 0.0 0.0 0.00 0.00 0.00 89 1017.4
20260902080519 75 0 0.0 0.0 0.00 0.00 0.00 89 1017.3
20260902080036 75 0 0.0 0.0 0.00 0.00 0.00 89 1017.4
20260902075519 75 0 0.0 0.0 0.00 0.00 0.00 89 1017.3
20260902075017 75 0 0.0 0.0 0.00 0.00 0.00 89 1017.4
20260902074537 75 0 0.0 0.0 0.00 0.00 0.00 88 1017.4
20260902074019 75 0 0.0 0.0 0.00 0.00 0.00 88 1017.3
20260902073520 75 0 0.0 0.0 0.00 0.00 0.00 88 1017.3
20260902073036 75 0 0.0 0.0 0.00 0.00 0.00 88 1017.3
20260902072516 75 0 0.0 0.0 0.00 0.00 0.00 88 1017.4
20260902072018 75 0 0.0 0.0 0.00 0.00 0.00 88 1017.3
20260902071535 75 0 0.0 0.0 0.00 0.00 0.00 88 1017.3
20260902071018 75 0 0.0 0.0 0.00 0.00 0.00 88 1017.4
20260902070520 75 0 0.0 0.0 0.00 0.00 0.00 88 1017.4
20260902070036 75 0 0.0 0.0 0.00 0.00 0.00 88 1017.3
20260902065521 75 0 0.0 0.0 0.00 0.00 0.00 88 1017.3
20260902065017 76 0 0.0 0.0 0.00 0.00 0.00 88 1017.2
20260902064539 76 0 0.0 0.0 0.00 0.00 0.00 88 1017.3
20260902064019 76 0 0.0 0.0 0.00 0.00 0.00 87 1017.4
20260902063520 76 0 0.0 0.0 0.00 0.00 0.00 87 1017.4
20260902063038 76 0 0.0 0.0 0.00 0.00 0.00 87 1017.4
20260902062519 76 0 0.0 0.0 0.00 0.00 0.00 87 1017.4
20260902062019 76 0 0.0 0.0 0.00 0.00 0.00 87 1017.5
20260902061544 76 0 0.0 0.0 0.00 0.00 0.00 87 1017.5
20260902061021 76 0 0.0 0.0 0.00 0.00 0.00 87 1017.4